Location: 81360 Arifat, France
(43.7204°N, 2.3408°E)
Time: 04:07:16
(UTC+01:00)

ACS3 Solar Sail - Pass Details

Date: 13 October 2025
Orbit: 909 x 993 km, 97.3° (Epoch: 13 November)

Event Time Altitude Azimuth Distance (km) Brightness Sun altitude
Rises 06:10:00 0° 7° (N) 3,550 5.0 -21.1°
Reaches altitude 10° 06:12:27 10° 4° (N) 2,604 4.2 -20.6°
Maximum altitude 06:18:06 56° 288° (WNW) 1,074 1.7 -19.6°
Enters shadow 06:22:26 18° 215° (SW) 2,112 3.2 -18.8°
